CST,Max TemperatureF,Mean TemperatureF,Min TemperatureF,Max Dew PointF,MeanDew PointF,Min DewpointF,Max Humidity, Mean Humidity, Min Humidity, Max Sea Level PressureIn, Mean Sea Level PressureIn, Min Sea Level PressureIn, Max VisibilityMiles, Mean VisibilityMiles, Min VisibilityMiles, Max Wind SpeedMPH, Mean Wind SpeedMPH, Max Gust SpeedMPH,PrecipitationIn, CloudCover, Events, WindDirDegrees
2013-2-1,37,24,12,19,13,7,79,64,44,30.36,30.21,30.07,10,10,10,22,10,26,0.00,1,,202
2013-2-2,55,40,26,34,27,19,86,67,35,30.29,30.22,30.11,10,10,10,15,11,20,0.00,0,,288
2013-2-3,55,40,24,28,25,19,80,58,33,30.28,30.08,29.81,10,10,10,26,10,30,0.00,0,,202
2013-2-4,51,40,30,30,27,25,80,61,40,29.98,29.91,29.80,10,10,10,14,8,,0.00,0,,10
2013-2-5,60,43,26,30,26,19,86,55,27,30.03,29.97,29.89,10,10,10,13,7,,0.00,0,,111
2013-2-6,60,44,28,48,37,21,94,74,55,30.01,29.88,29.76,10,8,1,26,10,33,0.00,2,,163
2013-2-7,55,42,30,50,34,25,94,68,33,30.21,30.03,29.81,10,8,0,24,11,30,0.25,3,Thunderstorm,11
2013-2-8,50,36,21,34,27,18,87,70,46,30.26,30.16,30.04,10,10,7,24,7,28,0.00,0,,153
2013-2-9,50,42,33,39,33,27,93,76,66,30.04,29.79,29.49,10,7,2,33,20,40,0.00,4,,162
2013-2-10,44,36,28,39,25,19,87,60,42,30.05,29.67,29.41,10,10,7,36,25,44,0.00,3,,280
2013-2-11,42,32,21,21,19,16,80,61,36,30.21,30.14,30.05,10,10,10,15,8,,0.00,0,,315
2013-2-12,42,34,24,28,24,21,86,70,57,30.13,30.04,29.97,10,10,10,10,4,,0.00,4,,211
2013-2-13,57,39,21,23,19,16,80,53,21,29.99,29.93,29.85,10,10,10,22,9,28,0.00,1,,276
2013-2-14,44,36,26,30,24,16,80,62,44,30.32,30.11,29.93,10,10,10,22,11,29,0.00,3,,322
2013-2-15,39,27,15,21,14,7,86,61,41,30.41,30.35,30.29,10,10,10,18,8,24,0.00,2,,319
2013-2-16,60,36,12,27,18,3,85,55,27,30.36,30.13,29.96,10,10,10,23,8,25,0.00,2,,252
2013-2-17,71,48,24,30,23,18,80,45,14,29.96,29.75,29.47,10,10,10,25,9,31,0.00,0,,196
2013-2-18,50,38,24,28,21,14,65,47,29,30.13,29.80,29.39,10,10,10,34,19,45,0.00,1,,336
2013-2-19,42,28,15,18,14,9,80,55,34,30.31,30.22,30.13,10,10,10,16,7,16,0.00,0,,55
2013-2-20,28,26,23,25,17,5,93,71,37,30.18,30.06,29.95,10,6,0,22,16,28,0.00,7,,112
2013-2-21,23,18,12,18,14,7,86,82,73,29.96,29.82,29.74,10,4,0,21,15,25,0.01,6,,26
2013-2-22,21,12,3,12,5,-2,85,76,68,30.09,30.02,29.92,10,10,10,16,11,,0.00,0,,278
2013-2-23,35,19,3,27,14,0,93,79,70,30.03,29.90,29.82,10,8,5,14,8,,0.02,0,,202
2013-2-24,37,27,17,28,23,12,87,79,65,29.94,29.83,29.77,10,8,4,22,10,25,0.00,4,,95
2013-2-25,32,30,28,28,26,25,93,84,75,29.94,29.88,29.81,8,4,0,28,23,34,0.01,7,,12
2013-2-26,32,24,15,25,19,10,86,76,69,29.94,29.84,29.79,10,9,7,18,13,22,0.00,2,,335
2013-2-27,37,27,17,28,21,12,86,73,60,30.19,30.09,29.94,10,10,7,25,12,31,0.01,2,,323
2013-2-28,35,27,19,27,21,14,93,76,65,30.25,30.21,30.18,10,10,5,17,10,22,0.00,0,,327